Flag for Ireland Weather past 2 weeks in Galway, Ireland

Now
57 °F

Partly sunny.


Feels Like: 53 °F
Forecast: 53 / 60 °F
Wind: 17 mph from Southwest

Location: Shannon Airport

Current Time: Jul 31, 2015 at 8:38:15 PM

Latest Report: Jul 31, 2015 at 8:00 PM


Visibility: N/A

Pressure: 29.89 "Hg

Humidity: 77%

Dew point: 50 °F

Location of GalwayLocation

Historic Weather in Galway — Graph

°F

Galway temperature yesterday

Maximum temperature yesterday: 63 °F (at 1:30 PM)
Minimum temperature yesterday: 45 °F (at 4:30 AM)
Average temperature yesterday: 55 °F

Past Weeks' High & Low Weather Summary

 TemperatureHumidityPressure
High64 °F (Jul 16, 7:00 PM)100% (Jul 18, 10:00 PM)30.18 "Hg (Jul 18, 10:00 PM)
Low45 °F (Jul 25, 5:00 AM)52% (Jul 23, 5:00 PM)29.33 "Hg (Jul 26, 10:30 AM)
Average57 °F80%29.84 "Hg
* Reported Jul 16 7:00 PM — Jul 31 7:00 PM, Galway, Weather by CustomWeather, © 2015

Note: Actual official high and low records may vary slightly from our data, if they occured in-between our weather recording intervals... More about our weather records

Advertising

Galway weather history for previous 24 hours

 ConditionsComfort  
Time TempWeatherWind HumidityBarometerVisibility
7:00 PM
Fri, Jul 31
59 °FBroken clouds.16 mph82%29.89 "HgN/A
6:30 PM57 °FPartly sunny.15 mph82%29.92 "HgN/A
6:00 PM57 °FLight rain. Partly sunny.15 mph88%29.92 "HgN/A
5:30 PM57 °FLight rain. Broken clouds.15 mph88%29.92 "HgN/A
5:00 PM55 °FLight rain. Broken clouds.16 mph94%29.92 "HgN/A
4:30 PM55 °FDrizzle. Partly sunny.24 mph100%29.92 "Hg2 mi
4:00 PM57 °FDrizzle. Partly sunny.15 mph88%29.92 "Hg1 mi
3:30 PM57 °FLight rain. Partly sunny.14 mph88%29.92 "Hg6 mi
3:00 PM55 °FDrizzle. Partly sunny.16 mph94%29.95 "HgN/A
2:30 PM55 °FDrizzle. Partly sunny.17 mph94%29.95 "Hg5 mi
2:00 PM59 °FBroken clouds.18 mph72%29.95 "HgN/A
1:30 PM59 °FBroken clouds.16 mph77%29.95 "HgN/A
1:00 PM59 °FBroken clouds.17 mph77%29.95 "HgN/A
12:30 PM57 °FPartly sunny.15 mph82%29.98 "HgN/A
12:00 PM55 °FBroken clouds.15 mph94%29.98 "HgN/A
11:30 AM54 °FPartly sunny.14 mph94%29.98 "HgN/A
11:00 AM55 °FLight rain. Partly sunny.9 mph88%29.98 "Hg5 mi
10:30 AM57 °FLight rain. Broken clouds.14 mph77%29.98 "Hg6 mi
10:00 AM57 °FBroken clouds.17 mph72%30.01 "HgN/A
9:30 AM57 °FLight rain. Partly sunny.13 mph77%30.01 "HgN/A
9:00 AM57 °FBroken clouds.10 mph77%30.01 "HgN/A
8:30 AM55 °FPartly sunny.10 mph82%30.01 "HgN/A
8:00 AM55 °FBroken clouds.13 mph82%30.01 "HgN/A
7:30 AM54 °FPartly sunny.10 mph88%30.01 "HgN/A
7:00 AM55 °FPartly sunny.13 mph82%30.01 "HgN/A
6:30 AM54 °FPartly cloudy.13 mph88%30.04 "HgN/A
6:00 AM54 °FPassing clouds.12 mph88%30.04 "HgN/A
5:00 AM54 °FOvercast.7 mph88%30.04 "HgN/A
4:30 AM54 °FPartly cloudy.8 mph88%30.07 "HgN/A
4:00 AM54 °FPassing clouds.10 mph88%30.07 "HgN/A
3:30 AM54 °FPartly cloudy.7 mph88%30.07 "HgN/A
3:00 AM54 °FPassing clouds.8 mph88%30.09 "HgN/A
2:30 AM54 °FPartly cloudy.8 mph88%30.09 "HgN/A
2:00 AM55 °FClear.7 mph82%30.09 "Hg10 mi
1:30 AM55 °FOvercast.6 mph82%30.09 "HgN/A
1:00 AM55 °FOvercast.7 mph77%30.12 "HgN/A
12:30 AM55 °FOvercast.8 mph82%30.12 "HgN/A
12:00 AM55 °FPassing clouds.10 mph82%30.12 "HgN/A
11:30 PM
Thu, Jul 30
55 °FPassing clouds.6 mph82%30.12 "HgN/A
11:00 PM55 °FPartly cloudy.8 mph77%30.15 "HgN/A
10:30 PM55 °FBroken clouds.9 mph82%30.15 "HgN/A
10:00 PM55 °FBroken clouds.8 mph77%30.15 "HgN/A
9:30 PM57 °FBroken clouds.8 mph72%30.15 "HgN/A
9:00 PM57 °FPartly sunny.10 mph67%30.15 "HgN/A
8:30 PM57 °FPartly sunny.10 mph67%30.15 "HgN/A
8:00 PM57 °FPartly sunny.10 mph63%30.15 "HgN/A
Weather by CustomWeather, © 2015

See weather overviewHow to use our weather pages